Change the Weather History Date:

Saturday, March 15, 2014

  Actual Average Record
Temperature  
Mean Temperature 64 °F -  
Max Temperature 76 °F 77 °F 95 °F (1972)
Min Temperature 52 °F 37 °F 23 °F (1962)
Degree Days  
Heating Degree Days 1    
Growing Degree Days 14 (Base 50)    
Moisture  
Dew Point 30 °F    
Average Humidity 30    
Maximum Humidity 48    
Minimum Humidity 16    
Precipitation  
Precipitation 0.00 in - - ()
Sea Level Pressure  
Sea Level Pressure 29.87 in    
Wind  
Wind Speed 11 mph (West)    
Max Wind Speed 32 mph    
Max Gust Speed 40 mph    
Visibility 10 miles    
Events      
Averages and records for this station are not official NWS values.
T = Trace of Precipitation, MM = Missing Value Source: NWS Daily Summary

Daily Weather History Graph

Daily Weather History Graph

Search for Another Location

Airport or City:

Trip Planner

Search our weather history database for the weather conditions in past years. The results will help you decide how hot, cold, wet, or windy it might be!

Date:

Astronomy

Mar. 15, 2014 Rise Set
Actual Time 8:04 AM CDT 8:02 PM CDT
Civil Twilight 7:39 AM CDT 8:26 PM CDT
Nautical Twilight 7:11 AM CDT 8:54 PM CDT
Astronomical Twilight 6:43 AM CDT 9:22 PM CDT
Moon 7:24 PM CDT (3/15) 7:15 AM CDT (3/15)
Length of Visible Light 12h 46m
Length of Day
11h 58m
Waxing Gibbous, 99% of the Moon is Illuminated
Mar 15
Waxing Gibbous
Mar 16
Full
Mar 23
Last Quarter
Mar 30
New
Apr 7
First Quarter

Hourly Weather History & Observations

Time (CDT) Temp. Dew Point Humidity Pressure Visibility Wind Dir Wind Speed Gust Speed Precip Events Conditions
12:15 AM 61.0 °F 30.2 °F 31% 29.91 in 10.0 mi SW 3.5 mph - N/A   Clear
12:35 AM 57.4 °F 30.0 °F 35% 29.91 in 10.0 mi NW 8.1 mph - N/A   Clear
12:55 AM 56.8 °F 29.7 °F 35% 29.92 in 10.0 mi WNW 8.1 mph - N/A   Clear
1:15 AM 58.8 °F 29.3 °F 33% 29.92 in 10.0 mi NNW 5.8 mph - N/A   Scattered Clouds
1:35 AM 59.2 °F 29.7 °F 33% 29.92 in 10.0 mi Calm Calm - N/A   Mostly Cloudy
1:55 AM 58.5 °F 29.8 °F 34% 29.92 in 10.0 mi North 4.6 mph - N/A   Overcast
2:15 AM 59.5 °F 30.2 °F 33% 29.91 in 10.0 mi NNE 4.6 mph - N/A   Overcast
2:35 AM 59.0 °F 30.7 °F 34% 29.91 in 10.0 mi North 6.9 mph - N/A   Scattered Clouds
2:55 AM 57.7 °F 30.7 °F 36% 29.91 in 10.0 mi ESE 10.4 mph - N/A   Scattered Clouds
3:15 AM 56.5 °F 30.7 °F 38% 29.91 in 10.0 mi Calm Calm - N/A   Scattered Clouds
3:35 AM 56.5 °F 30.7 °F 38% 29.92 in 10.0 mi NW 3.5 mph - N/A   Scattered Clouds
3:55 AM 54.1 °F 30.7 °F 41% 29.91 in 10.0 mi West 3.5 mph - N/A   Clear
4:15 AM 54.9 °F 30.9 °F 40% 29.91 in 10.0 mi Calm Calm - N/A   Scattered Clouds
4:35 AM 54.5 °F 31.6 °F 42% 29.91 in 10.0 mi Calm Calm - N/A   Scattered Clouds
4:55 AM 55.2 °F 32.0 °F 41% 29.91 in 10.0 mi Calm Calm - N/A   Scattered Clouds
5:15 AM 54.1 °F 31.5 °F 42% 29.91 in 10.0 mi Calm Calm - N/A   Mostly Cloudy
5:35 AM 53.6 °F 32.0 °F 44% 29.91 in 10.0 mi Calm Calm - N/A   Mostly Cloudy
5:55 AM 54.0 °F 32.0 °F 43% 29.91 in 10.0 mi WNW 4.6 mph - N/A   Scattered Clouds
6:15 AM 55.2 °F 32.0 °F 41% 29.91 in 10.0 mi Calm Calm - N/A   Mostly Cloudy
6:35 AM 55.9 °F 32.4 °F 41% 29.91 in 10.0 mi Calm Calm - N/A   Mostly Cloudy
6:55 AM 57.2 °F 32.0 °F 38% 29.91 in 10.0 mi Calm Calm - N/A   Mostly Cloudy
7:15 AM 53.1 °F 32.0 °F 45% 29.92 in 10.0 mi SW 3.5 mph - N/A   Scattered Clouds
7:35 AM 53.6 °F 32.2 °F 44% 29.92 in 10.0 mi West 8.1 mph - N/A   Clear
7:55 AM 54.1 °F 32.5 °F 44% 29.92 in 10.0 mi SW 4.6 mph - N/A   Clear
8:15 AM 52.2 °F 32.0 °F 46% 29.92 in 10.0 mi WSW 6.9 mph - N/A   Clear
8:35 AM 52.0 °F 32.9 °F 48% 29.92 in 10.0 mi West 9.2 mph - N/A   Clear
8:55 AM 53.1 °F 33.3 °F 47% 29.92 in 10.0 mi WSW 6.9 mph - N/A   Clear
9:15 AM 57.4 °F 33.6 °F 41% 29.92 in 10.0 mi WSW 6.9 mph - N/A   Clear
9:35 AM 59.9 °F 33.8 °F 38% 29.93 in 10.0 mi WSW 9.2 mph - N/A   Clear
9:55 AM 62.8 °F 33.6 °F 34% 29.93 in 10.0 mi WSW 15.0 mph - N/A   Clear
10:15 AM 63.7 °F 32.9 °F 32% 29.93 in 10.0 mi West 16.1 mph - N/A   Clear
10:35 AM 66.0 °F 32.9 °F 29% 29.93 in 10.0 mi WSW 18.4 mph 25.3 mph N/A   Clear
10:55 AM 67.5 °F 32.2 °F 27% 29.93 in 10.0 mi West 23.0 mph 28.8 mph N/A   Clear
11:15 AM 68.0 °F 30.7 °F 25% 29.93 in 10.0 mi WSW 29.9 mph 34.5 mph N/A   Clear
11:35 AM 68.9 °F 30.9 °F 24% 29.92 in 10.0 mi West 25.3 mph 33.4 mph N/A   Clear
11:55 AM 69.3 °F 30.2 °F 23% 29.91 in 10.0 mi West 29.9 mph 38.0 mph N/A   Clear
12:15 PM 69.4 °F 31.8 °F 25% 29.91 in 10.0 mi West 27.6 mph 38.0 mph N/A   Clear
12:35 PM 70.0 °F 32.4 °F 25% 29.90 in 10.0 mi West 31.1 mph 38.0 mph N/A   Clear
12:55 PM 70.7 °F 32.9 °F 25% 29.89 in 10.0 mi West 21.9 mph 36.8 mph N/A   Clear
1:15 PM 70.9 °F 32.9 °F 25% 29.88 in 10.0 mi West 26.5 mph 34.5 mph N/A   Clear
1:35 PM 72.0 °F 32.2 °F 23% 29.87 in 10.0 mi West 24.2 mph 33.4 mph N/A   Clear
1:55 PM 72.7 °F 32.0 °F 22% 29.85 in 10.0 mi West 21.9 mph 34.5 mph N/A   Clear
2:15 PM 73.6 °F 30.7 °F 21% 29.84 in 10.0 mi West 23.0 mph 36.8 mph N/A   Clear
2:35 PM 74.3 °F 28.6 °F 18% 29.81 in 10.0 mi West 18.4 mph 29.9 mph N/A   Clear
2:55 PM 74.3 °F 28.2 °F 18% 29.80 in 10.0 mi West 19.6 mph 28.8 mph N/A   Clear
3:15 PM 75.2 °F 28.8 °F 18% 29.79 in 10.0 mi West 17.3 mph 32.2 mph N/A   Clear
3:35 PM 75.6 °F 28.6 °F 18% 29.77 in 10.0 mi West 23.0 mph 29.9 mph N/A   Scattered Clouds
3:55 PM 76.3 °F 29.1 °F 18% 29.77 in 10.0 mi West 17.3 mph 29.9 mph N/A   Scattered Clouds
4:15 PM 75.9 °F 29.7 °F 18% 29.77 in 10.0 mi West 20.7 mph 28.8 mph N/A   Scattered Clouds
4:35 PM 75.4 °F 29.1 °F 18% 29.76 in 10.0 mi West 24.2 mph 28.8 mph N/A   Scattered Clouds
4:55 PM 75.7 °F 27.9 °F 17% 29.76 in 10.0 mi West 32.2 mph 40.3 mph N/A   Scattered Clouds
5:15 PM 74.3 °F 27.3 °F 18% 29.75 in 10.0 mi West 21.9 mph 33.4 mph N/A   Clear
5:35 PM 75.6 °F 26.4 °F 16% 29.75 in 10.0 mi West 20.7 mph 32.2 mph N/A   Clear
5:55 PM 75.2 °F 26.2 °F 16% 29.75 in 10.0 mi West 19.6 mph 33.4 mph N/A   Scattered Clouds
6:15 PM 75.0 °F 26.1 °F 16% 29.76 in 10.0 mi West 28.8 mph 33.4 mph N/A   Clear
6:35 PM 74.1 °F 26.4 °F 17% 29.76 in 10.0 mi West 24.2 mph 29.9 mph N/A   Clear
6:55 PM 73.0 °F 25.5 °F 17% 29.77 in 10.0 mi West 21.9 mph 29.9 mph N/A   Clear
7:15 PM 72.5 °F 25.2 °F 17% 29.77 in 10.0 mi West 23.0 mph 27.6 mph N/A   Clear
7:35 PM 71.2 °F 25.3 °F 18% 29.77 in 10.0 mi West 20.7 mph 25.3 mph N/A   Clear
7:55 PM 68.9 °F 28.0 °F 22% 29.79 in 10.0 mi West 19.6 mph 27.6 mph N/A   Clear
8:15 PM 68.2 °F 26.2 °F 21% 29.79 in 10.0 mi West 23.0 mph 27.6 mph N/A   Clear
8:35 PM 67.3 °F 25.3 °F 21% 29.80 in 10.0 mi WNW 17.3 mph 25.3 mph N/A   Clear
8:55 PM 66.0 °F 25.5 °F 22% 29.83 in 10.0 mi WNW 18.4 mph 27.6 mph N/A   Clear
9:15 PM 64.6 °F 30.4 °F 28% 29.85 in 10.0 mi WNW 28.8 mph 39.1 mph N/A   Clear
9:35 PM 62.2 °F 32.0 °F 32% 29.87 in 10.0 mi WNW 19.6 mph 29.9 mph N/A   Clear
9:55 PM 61.3 °F 32.0 °F 33% 29.86 in 10.0 mi WNW 18.4 mph 23.0 mph N/A   Clear
10:15 PM 60.8 °F 32.0 °F 34% 29.88 in 10.0 mi WNW 12.7 mph - N/A   Clear
10:35 PM 60.1 °F 32.0 °F 35% 29.88 in 10.0 mi WNW 10.4 mph - N/A   Clear
10:55 PM 59.5 °F 32.0 °F 35% 29.90 in 10.0 mi West 11.5 mph - N/A   Mostly Cloudy
11:15 PM 57.6 °F 32.0 °F 38% 29.91 in 10.0 mi West 10.4 mph - N/A   Scattered Clouds
11:35 PM 55.8 °F 32.9 °F 42% 29.93 in 10.0 mi West 11.5 mph - N/A   Clear
11:55 PM 56.7 °F 32.9 °F 41% 29.94 in 10.0 mi WNW 13.8 mph - N/A   Clear